Regional Weather Roundup
Issued by NWS

Home | Current Version | Previous Version | Graphics & Text | Print | Product List | Glossary On
Versions: 1 2 3 4 5 6 7 8 9 10 11 12 13 14 15 16 17 18 19 20 21 22 23 24 25 26 27 28 29 30 31 32 33 34 35 36 37 38 39 40 41 42 43 44 45 46 47 48 49 50
000
ASUS43 KLOT 280710
RWRIL

ILLINOIS REGIONAL WEATHER ROUNDUP
NATIONAL WEATHER SERVICE CHICAGO/ROMEOVILLE IL
100 AM CST SUN DEC 28 2014

NOTE: "FAIR" INDICATES FEW OR NO CLOUDS BELOW 12,000 FEET WITH NO
SIGNIFICANT WEATHER AND/OR OBSTRUCTIONS TO VISIBILITY.

* THESE STATIONS ARE NOT UNDER NWS QUALITY CONTROL. THEY ALSO MAY NOT
  REPORT WEATHER SUCH AS PRECIPITATION OR FOG.

ILZ001-002-007-009-015-016-024-280800-
NORTHWEST ILLINOIS

CITY           SKY/WX    TMP DP  RH WIND       PRES   REMARKS
MOLINE         CLEAR     23  15  71 W8        30.19S WCI  14
STERLING*      MOCLDY    25  18  74 NW10      30.16S WCI  15
SAVANNA*       PTCLDY    23  18  78 W8        30.17S WCI  14
$$

ILZ003-004-008-010-011-017-018-280800-
NORTH CENTRAL ILLINOIS

CITY           SKY/WX    TMP DP  RH WIND       PRES   REMARKS
ROCKFORD       CLOUDY    27  19  72 NW14      30.14S WCI  16
FREEPORT*      CLOUDY    23  19  83 W10       30.15S WCI  13
ROCHELLE*      PTCLDY    25  21  86 W10       30.14S WCI  14
DE KALB*       CLOUDY    26  22  84 NW14      30.11S WCI  15
PERU*          MOCLDY    27  23  83 W10       30.17R WCI  17
$$

ILZ005-006-012>014-019>023-280800-
NORTHEAST ILLINOIS

CITY           SKY/WX    TMP DP  RH WIND       PRES   REMARKS
CHICAGO-OHARE  CLOUDY    30  23  75 NW13      30.09S WCI  20
CHICAGO-MIDWAY CLOUDY    32  24  72 W13       30.11R WCI  22
AURORA         CLOUDY    29  23  78 NW15      30.12S WCI  18
LANSING*       CLOUDY    31  25  77 NW9       30.11S WCI  23
JOLIET*        CLOUDY    30  24  81 W8        30.14R WCI  22
WAUKEGAN       CLOUDY    30  22  72 W8        30.08R WCI  22
DUPAGE AIRPORT CLOUDY    30  24  78 W12       30.10R WCI  20
KANKAKEE*      CLOUDY    31  27  88 W15       30.14R WCI  20
WHEELING       CLOUDY    31  23  72 W12       30.11R WCI  22
MORRIS*        CLOUDY    29  26  89 NW13G20   30.13S WCI  19
ROMEOVILLE*    CLOUDY    30  26  83 NW10      30.12R WCI  21
NORTHERLY ISL    N/A     32  25  76 W8          N/A  WCI  25
$$

LMZ740>746-280800-
SOUTHERN LAKE MICHIGAN

STATION/POSITION SKY/WX   TEMP    WIND        PRES    VSBY  WAVE
                          AIR SEA DIR/SP/G                  HT/PER
                          (F)     (DEG/KT/KT) (MB)    (MI)  (FT/S)
WAUKEGAN HARBOR            31     310/  7/ 18   N/A
HARRISON CRIB              31     300/ 13/ 16   N/A
BURNHAM HARBOR             32     280/  6/ 13   N/A
CALUMET HARBOR             31     260/  9/ 14 1018.1R
MICHIGAN CITY              34     280/ 13/ 14   N/A
$$

ILZ025>027-034>036-040-047-049-050-058-095>099-280800-
WEST-CENTRAL ILLINOIS

CITY           SKY/WX    TMP DP  RH WIND       PRES   REMARKS
QUINCY         CLOUDY    29  22  75 NW12      30.21S WCI  19
GALESBURG*     CLOUDY    24  21  88 W7        30.19R WCI  16
MACOMB*        CLOUDY    28  23  81 NW12      30.23R WCI  18
JACKSONVILLE*  CLOUDY    32  27  80 W9        30.20F WCI  24
PITTSFIELD*    CLOUDY    31  25  77 NW10      30.22F WCI  22
$$

ILZ028>032-037-038-041>044-048-051>054-059>061-280800-
CENTRAL ILLINOIS

CITY           SKY/WX    TMP DP  RH WIND       PRES   REMARKS
PONTIAC        CLOUDY    31  27  87 W13       30.16R WCI  21
BLOOMINGTON    CLOUDY    29  26  88 W16       30.17R WCI  17
DECATUR        CLOUDY    31  25  78 W14       30.17S WCI  21
PEORIA         CLOUDY    29  20  69 NW10      30.20R WCI  20
LACON*         PTCLDY    26  20  79 W5        30.18R WCI  20
LINCOLN*       CLOUDY    31  26  80 NW7       30.20S WCI  24
SPRINGFIELD    CLOUDY    31  24  75 W13       30.20R WCI  21
TAYLORVILLE    CLOUDY    32  27  80 NW9       30.19F WCI  24
$$

ILZ033-039-045-046-055>057-062-063-280800-
EAST-CENTRAL ILLINOIS

CITY           SKY/WX    TMP DP  RH WIND       PRES   REMARKS
CHAMPAIGN      MOCLDY    30  26  85 NW12      30.15S WCI  20
DANVILLE*      CLOUDY    31  27  86 NW12G17   30.11S WCI  22
RANTOUL*       MOCLDY    31  28  87 NW12      30.14F WCI  22
MATTOON        CLOUDY    32  28  85 NW12      30.15S WCI  23
PARIS*         CLOUDY    32  30  93 NW6       30.15S WCI  26
$$

ILZ079-100>102-280800-
SOUTHWEST ILLINOIS

CITY           SKY/WX    TMP DP  RH WIND       PRES   REMARKS
ALTON          CLOUDY    33  28  81 NW5       30.19F WCI  28
BELLEVILLE     CLOUDY    33  30  87 NW9       30.19F WCI  26
CAHOKIA*       CLOUDY    34  27  75 NW12      30.21F WCI  25
SPARTA*        CLOUDY    34  30  83 NW9G17    30.20S WCI  27
$$

ILZ064>066-069>071-074>076-080>082-084>086-088>090-092>094-280800-
SOUTH-CENTRAL ILLINOIS

CITY           SKY/WX    TMP DP  RH WIND       PRES   REMARKS
CARBONDALE     CLOUDY    36  32  85 NW13      30.18S WCI  27
CAIRO*         CLOUDY    40  37  86 N10G16    30.18R
EFFINGHAM*     CLOUDY    33  26  78 NW9       30.19R WCI  25
MARION         CLOUDY    37  34  87 NW6       30.18R WCI  33
MT. VERNON     CLOUDY    36  28  75 N5        30.17F WCI  32
CENTRALIA*     CLOUDY    34  29  83 NW10      30.17F WCI  26
SALEM*         CLOUDY    36  31  83 N10       30.18S WCI  28
METROPOLIS*    CLOUDY    39  39 100 N9        30.15R WCI  33
$$

ILZ067-068-072-073-078-083-087-091-280800-
SOUTHEAST ILLINOIS

CITY           SKY/WX    TMP DP  RH WIND       PRES   REMARKS
LAWRENCEVILLE  CLOUDY    35  32  88 NW14      30.15S WCI  26
FLORA*         PTCLDY    35  32  89 NW12      30.17S WCI  26
FAIRFIELD*     CLOUDY    36  33  89 NW6       30.16S WCI  31
HARRISBURG*    CLOUDY    37  36  96 NW9       30.18R FOG     WCI  30
ROBINSON*      CLOUDY    34  31  89 NW13      30.16S WCI  25
CARMI*         CLOUDY    38  37  96 NW13      30.15S WCI  31
$$

ABBREVIATIONS USED IN REMARKS
   TC - TEMPERATURE IN CELSIUS
  WCI - WIND CHILL INDEX
   HX - HEAT INDEX
  VSB - VISIBILITY
$$



USA.gov is the U.S. government's official web portal to all federal, state and local government web resources and services.